Location: Howard City Library
(37.4684°N, 96.2639°W)
Time: 18:34:15
(UTC+00:00)

CZ-4B R/B - Pass Details

Date: 18 February 2020
Orbit: 808 x 882 km, 99.1° (Epoch: 01 April)

Event Time Altitude Azimuth Distance (km) Brightness Sun altitude
Rises 11:43:32 0° 20° (NNE) 3,351 6.6 -18.1°
Reaches altitude 10° 11:45:59 10° 26° (NNE) 2,408 5.9 -17.6°
Maximum altitude 11:51:06 48° 100° (E) 1,056 4.2 -16.6°
Drops below altitude 10° 11:56:09 10° 174° (S) 2,383 5.7 -15.5°
Sets 11:58:34 0° 180° (S) 3,312 6.3 -15.1°
